{"data":{"norad_id":67031,"intl_designator":"2025-294B","name":"STARLINK-36150","alt_names":[],"object_type":"PAYLOAD","status":"ACTIVE","operator":null,"country":"US","launch_date":"2025-12-11","launch_site_code":"AFETR","launch_vehicle":null,"mission":null,"orbit_class":"UNKNOWN","rcs_meters":null,"size_class":null,"mass_kg":null,"dimensions":null,"purposes":["comms"],"wikipedia_slug":null,"has_3d_model":false,"image_url":null,"decayed_at":null,"tle_current":{"epoch":"2026-05-25T04:30:17.760384Z","epoch_age_seconds":55664,"freshness":"FRESH","line1":"1 67031U 25294B   26145.18770556  .00022013  00000+0  80682-3 0  9990","line2":"2 67031  43.0026 325.6262 0001377 276.3121  83.7574 15.27591018 26506","mean_motion":15.27591018,"eccentricity":0.0001377,"inclination_deg":43.0026,"raan_deg":325.6262,"arg_perigee_deg":276.3121,"mean_anomaly_deg":83.7574,"bstar":0.00080682,"rev_number":2650,"period_min":94.266068799313,"perigee_km":482.07132359977,"apogee_km":483.96088516472,"semimajor_km":6861.1531043822,"source":"CELESTRAK","updated_at":"2026-05-25T13:38:21.436245Z"}}}